Content
SEND FEEDBACK

Daily
Averages
Monthly
Summary
United States of America

MERIZO, GUAM


Home > North America > United States > Guam
Elevation: 10 feet     Latitude: 13 14N     Longitude: 144 39E

WEATHER
 
SELECT A DAY
Number of Records: 341,964;   Date Range: 1/1/95 - 7/26/14
 
SHARE

PRINT THIS DATA

[ ← Previous Day ]
WEATHER ALMANAC - FEBRUARY 13, 2013
[ Next Day → ]
[ °C ]   °F
Weather ElementAverageHighLow
Temperature78.5 °F84.2 °F (12:12 pm)75.2 °F (2:51 am)
Dewpoint73.6 °F75.2 °F (10:56 am)71.6 °F (12:38 am)
Humidity85 %94 % (2:51 am)74 % (12:12 pm)
Barometer29.85 in29.90 in (9:55 am)29.82 in (3:30 pm)
Wind Speed18.9 mph32.2 mph (2:57 am)
Wind Gust42.6 mph (2:49 am)
Weather ElementAverage
Visibility9.1 mi
Wind DirectionENE (68.1 °)

Weather ElementTotal
Precipitation0.08 in
Cooling Degree Days14.7 (Base 65)
Growing Degree Days29.7 (Base 50)
Averaged from 111 records on February 13, 2013
WEATHER CONDITIONS BREAKOUT
WIND DIRECTION BREAKOUT
WEATHER BY HOUR - FEBRUARY 13, 2013
[ °C ]   °F
Local TimeTemperatureDewpointHumidityBarometerVisibilityWind DirectionWind SpeedGust SpeedPrecipitationEventsConditions
12:38 AM78.8 °F71.6 °F78 %29.88 in10.0 miEast (80°)21.9 mphMostly Cloudy
12:51 AM78.8 °F71.6 °F78 %29.88 in10.0 miENE (60°)16.1 mph23.0 mphScattered Clouds
12:55 AM78.1 °F72.5 °F83 %29.87 in10.0 miENE (70°)20.7 mph25.3 mphScattered Clouds
1:55 AM77.9 °F72.7 °F84 %29.86 in10.0 miENE (60°)19.6 mph28.8 mphPartly Cloudy
2:19 AM78.8 °F71.6 °F78 %29.85 in10.0 miENE (60°)20.7 mph26.5 mphMostly Cloudy
2:43 AM78.8 °F73.4 °F83 %29.85 in9.0 miENE (60°)23.0 mphRainLight Rain
2:49 AM77.0 °F73.4 °F89 %29.85 in3.0 miENE (60°)29.9 mph42.6 mphRainLight Rain
2:51 AM75.2 °F73.4 °F94 %29.85 in2.5 miENE (70°)29.9 mph42.6 mphRainLight Rain
2:53 AM75.2 °F73.4 °F94 %29.86 in2.5 miENE (70°)24.2 mph42.6 mphMostly Cloudy
2:55 AM75.4 °F73.4 °F94 %29.86 in2.5 miENE (70°)29.9 mph42.6 mph0.04 inMostly Cloudy
2:57 AM75.2 °F73.4 °F94 %29.86 in3.0 miENE (70°)32.2 mph42.6 mphMostly Cloudy
2:58 AM75.2 °F73.4 °F94 %29.86 in4.0 miENE (70°)29.9 mph40.3 mphRainLight Rain
3:08 AM75.2 °F71.6 °F89 %29.85 in9.0 miENE (70°)23.0 mph31.1 mphOvercast
3:15 AM75.2 °F71.6 °F89 %29.84 in10.0 miENE (70°)19.6 mph26.5 mphOvercast
3:55 AM76.6 °F72.3 °F86 %29.84 in10.0 miEast (80°)23.0 mph28.8 mph0.00 inOvercast
4:01 AM77.0 °F73.4 °F89 %29.84 in10.0 miENE (70°)16.1 mphMostly Cloudy
4:37 AM77.0 °F73.4 °F89 %29.84 in7.0 miENE (60°)21.9 mph27.6 mphRainLight Rain
4:55 AM75.2 °F72.1 °F90 %29.84 in7.0 miEast (80°)21.9 mph33.4 mph0.02 inLight Drizzle
5:00 AM75.2 °F71.6 °F89 %29.85 in10.0 miENE (70°)19.6 mph29.9 mphOvercast
5:10 AM75.2 °F73.4 °F94 %29.85 in10.0 miENE (60°)15.0 mph26.5 mphMostly Cloudy
5:16 AM75.2 °F73.4 °F94 %29.84 in10.0 miENE (70°)17.3 mph25.3 mphMostly Cloudy
5:22 AM77.0 °F73.4 °F89 %29.85 in10.0 miENE (70°)20.7 mph25.3 mphMostly Cloudy
5:25 AM77.0 °F73.4 °F89 %29.85 in10.0 miENE (70°)20.7 mphMostly Cloudy
5:29 AM77.0 °F73.4 °F89 %29.84 in10.0 miENE (70°)20.7 mph28.8 mphMostly Cloudy
5:30 AM77.0 °F73.4 °F89 %29.84 in10.0 miENE (70°)20.7 mph28.8 mphMostly Cloudy
5:31 AM77.0 °F73.4 °F89 %29.85 in10.0 miENE (70°)17.3 mph28.8 mphMostly Cloudy
5:32 AM77.0 °F73.4 °F89 %29.85 in10.0 miENE (60°)16.1 mph28.8 mphMostly Cloudy
5:33 AM77.0 °F73.4 °F89 %29.85 in10.0 miENE (60°)16.1 mph28.8 mphMostly Cloudy
5:36 AM77.0 °F73.4 °F89 %29.85 in10.0 miENE (60°)19.6 mph28.8 mphMostly Cloudy
5:37 AM77.0 °F73.4 °F89 %29.85 in10.0 miENE (70°)19.6 mph28.8 mphMostly Cloudy
5:39 AM77.0 °F73.4 °F89 %29.85 in10.0 miENE (70°)18.4 mph26.5 mphMostly Cloudy
5:50 AM77.0 °F73.4 °F89 %29.85 in10.0 miENE (60°)19.6 mphMostly Cloudy
5:55 AM76.5 °F72.9 °F89 %29.85 in10.0 miENE (60°)18.4 mph0.00 inMostly Cloudy
5:56 AM77.0 °F73.4 °F89 %29.85 in10.0 miENE (60°)18.4 mphMostly Cloudy
6:11 AM77.0 °F73.4 °F89 %29.85 in10.0 miENE (70°)19.6 mphMostly Cloudy
6:24 AM77.0 °F73.4 °F89 %29.86 in10.0 miENE (70°)18.4 mph24.2 mphMostly Cloudy
6:35 AM77.0 °F73.4 °F89 %29.86 in10.0 miENE (70°)20.7 mph25.3 mphMostly Cloudy
6:37 AM77.0 °F73.4 °F89 %29.86 in10.0 miENE (70°)19.6 mph25.3 mphMostly Cloudy
6:55 AM77.0 °F72.7 °F86 %29.86 in10.0 miENE (70°)19.6 mphScattered Clouds
7:55 AM78.8 °F71.8 °F79 %29.88 in10.0 miEast (80°)15.0 mph25.3 mphScattered Clouds
8:15 AM78.8 °F71.6 °F78 %29.88 in7.0 miEast (80°)17.3 mph25.3 mphRainLight Rain
8:24 AM77.0 °F73.4 °F89 %29.88 in9.0 miENE (70°)17.3 mphScattered Clouds
8:55 AM79.0 °F73.6 °F83 %29.89 in10.0 miENE (70°)19.6 mph0.01 inPartly Cloudy
9:55 AM78.8 °F71.8 °F79 %29.90 in10.0 miEast (80°)17.3 mphMostly Cloudy
9:59 AM78.8 °F71.6 °F78 %29.90 in10.0 miEast (80°)17.3 mphMostly Cloudy
10:09 AM78.8 °F73.4 °F83 %29.90 in10.0 miEast (80°)15.0 mphMostly Cloudy
10:55 AM79.9 °F74.1 °F82 %29.89 in7.0 miENE (70°)17.3 mph0.00 inRainLight Rain
10:56 AM78.8 °F75.2 °F89 %29.89 in6.0 miEast (80°)16.1 mphRainLight Rain
10:58 AM78.8 °F75.2 °F89 %29.89 in6.0 miENE (70°)16.1 mphRainLight Rain
11:03 AM78.8 °F75.2 °F89 %29.89 in7.0 miEast (80°)13.8 mphScattered Clouds
11:54 AM82.4 °F75.2 °F79 %29.87 in10.0 miENE (70°)17.3 mph24.2 mphMostly Cloudy
11:55 AM81.9 °F74.7 °F79 %29.87 in10.0 miEast (80°)17.3 mph24.2 mph0.00 inMostly Cloudy
12:03 PM82.4 °F75.2 °F79 %29.87 in10.0 miENE (70°)15.0 mphMostly Cloudy
12:04 PM82.4 °F75.2 °F79 %29.87 in10.0 miENE (60°)15.0 mphMostly Cloudy
12:05 PM82.4 °F75.2 °F79 %29.86 in10.0 miENE (60°)18.4 mph24.2 mphMostly Cloudy
12:09 PM82.4 °F75.2 °F79 %29.86 in10.0 miENE (70°)18.4 mph24.2 mphScattered Clouds
12:12 PM84.2 °F75.2 °F74 %29.86 in10.0 miEast (80°)17.3 mph24.2 mphMostly Cloudy
12:14 PM84.2 °F75.2 °F74 %29.87 in10.0 miENE (70°)18.4 mph24.2 mphScattered Clouds
12:35 PM78.8 °F75.2 °F89 %29.86 in6.0 miENE (60°)18.4 mph31.1 mphLight Drizzle
12:36 PM78.8 °F75.2 °F89 %29.86 in6.0 miENE (60°)16.1 mph31.1 mphLight Drizzle
12:39 PM78.8 °F75.2 °F89 %29.86 in6.0 miENE (60°)17.3 mph31.1 mphLight Drizzle
12:42 PM78.8 °F73.4 °F83 %29.86 in6.0 miENE (60°)16.1 mphHaze
12:55 PM80.1 °F74.7 °F83 %29.86 in10.0 miENE (60°)18.4 mph0.00 inPartly Cloudy
1:39 PM82.4 °F75.2 °F79 %29.84 in10.0 miENE (60°)16.1 mph21.9 mphMostly Cloudy
1:45 PM82.4 °F75.2 °F79 %29.84 in10.0 miENE (70°)16.1 mphScattered Clouds
1:55 PM82.9 °F74.8 °F76 %29.84 in10.0 miENE (60°)17.3 mph23.0 mphScattered Clouds
2:03 PM84.2 °F75.2 °F74 %29.84 in10.0 miENE (60°)18.4 mph24.2 mphMostly Cloudy
2:09 PM82.4 °F75.2 °F79 %29.83 in10.0 miEast (80°)16.1 mph24.2 mphScattered Clouds
2:17 PM82.4 °F75.2 °F79 %29.83 in10.0 miENE (60°)17.3 mphMostly Cloudy
2:31 PM82.4 °F75.2 °F79 %29.83 in6.0 miENE (60°)18.4 mph21.9 mphRainLight Rain
2:44 PM78.8 °F75.2 °F89 %29.83 in10.0 miENE (60°)13.8 mphMostly Cloudy
2:45 PM78.8 °F75.2 °F89 %29.83 in10.0 miENE (60°)15.0 mphMostly Cloudy
2:47 PM78.8 °F75.2 °F89 %29.83 in10.0 miENE (70°)16.1 mphMostly Cloudy
2:55 PM80.2 °F75.0 °F84 %29.83 in10.0 miEast (80°)16.1 mph0.01 inMostly Cloudy
3:30 PM80.6 °F75.2 °F84 %29.82 in7.0 miENE (70°)19.6 mph27.6 mphRainLight Rain
3:31 PM80.6 °F75.2 °F84 %29.82 in6.0 miEast (80°)19.6 mph27.6 mphLight Drizzle
3:32 PM80.6 °F75.2 °F84 %29.82 in6.0 miEast (80°)18.4 mph27.6 mphLight Drizzle
3:40 PM78.8 °F73.4 °F83 %29.82 in9.0 miENE (70°)15.0 mphScattered Clouds
3:42 PM78.8 °F73.4 °F83 %29.82 in10.0 miEast (80°)15.0 mphMostly Cloudy
3:46 PM78.8 °F73.4 °F83 %29.82 in10.0 miEast (80°)15.0 mphScattered Clouds
3:55 PM79.5 °F73.9 °F83 %29.82 in10.0 miEast (80°)15.0 mph0.00 inScattered Clouds
4:48 PM78.8 °F73.4 °F83 %29.83 in10.0 miENE (60°)15.0 mphMostly Cloudy
4:55 PM78.8 °F73.0 °F82 %29.83 in10.0 miENE (60°)13.8 mphMostly Cloudy
4:59 PM78.8 °F73.4 °F83 %29.83 in10.0 miENE (60°)12.7 mphMostly Cloudy
5:47 PM78.8 °F73.4 °F83 %29.83 in10.0 miENE (60°)19.6 mphMostly Cloudy
5:55 PM79.2 °F73.6 °F83 %29.83 in10.0 miENE (60°)17.3 mphMostly Cloudy
6:02 PM78.8 °F73.4 °F83 %29.83 in10.0 miENE (60°)18.4 mph23.0 mphMostly Cloudy
6:14 PM78.8 °F73.4 °F83 %29.83 in10.0 miENE (60°)18.4 mphMostly Cloudy
6:55 PM77.9 °F73.2 °F85 %29.84 in10.0 miENE (70°)17.3 mph24.2 mphScattered Clouds
7:10 PM78.8 °F73.4 °F83 %29.84 in10.0 miENE (70°)15.0 mph25.3 mphMostly Cloudy
7:12 PM78.8 °F73.4 °F83 %29.84 in10.0 miENE (60°)17.3 mph25.3 mphScattered Clouds
7:13 PM78.8 °F73.4 °F83 %29.84 in10.0 miENE (60°)19.6 mph25.3 mphMostly Cloudy
7:55 PM78.3 °F73.9 °F87 %29.85 in10.0 miENE (60°)16.1 mph24.2 mphMostly Cloudy
8:08 PM78.8 °F73.4 °F83 %29.85 in10.0 miENE (70°)18.4 mph28.8 mphMostly Cloudy
8:10 PM78.8 °F73.4 °F83 %29.86 in10.0 miENE (70°)18.4 mph28.8 mphMostly Cloudy
8:26 PM78.8 °F73.4 °F83 %29.86 in10.0 miENE (70°)18.4 mph24.2 mphMostly Cloudy
8:55 PM78.4 °F73.9 °F86 %29.87 in10.0 miNE (50°)16.1 mph24.2 mphMostly Cloudy
9:09 PM77.0 °F75.2 °F94 %29.87 in10.0 miEast (80°)18.4 mph31.1 mphOvercast
9:12 PM77.0 °F73.4 °F89 %29.87 in10.0 miEast (90°)18.4 mph31.1 mphOvercast
9:16 PM77.0 °F73.4 °F89 %29.87 in10.0 miEast (80°)20.7 mph29.9 mphOvercast
9:18 PM77.0 °F73.4 °F89 %29.87 in10.0 miEast (80°)20.7 mph29.9 mphOvercast
9:19 PM77.0 °F73.4 °F89 %29.88 in10.0 miENE (70°)21.9 mph28.8 mphOvercast
9:21 PM77.0 °F73.4 °F89 %29.88 in10.0 miEast (80°)20.7 mph28.8 mphOvercast
9:38 PM77.0 °F73.4 °F89 %29.88 in10.0 miENE (60°)21.9 mph29.9 mphMostly Cloudy
9:55 PM76.6 °F72.5 °F87 %29.88 in10.0 miENE (60°)20.7 mph27.6 mphMostly Cloudy
10:36 PM78.8 °F71.6 °F78 %29.88 in10.0 miENE (60°)25.3 mph32.2 mphMostly Cloudy
10:47 PM78.8 °F71.6 °F78 %29.88 in10.0 miENE (60°)20.7 mph31.1 mphMostly Cloudy
10:55 PM78.6 °F72.1 °F80 %29.88 in10.0 miENE (60°)25.3 mph31.1 mphMostly Cloudy
11:16 PM78.8 °F73.4 °F83 %29.88 in10.0 miENE (60°)23.0 mph28.8 mphMostly Cloudy
11:30 PM78.8 °F71.6 °F78 %29.88 in10.0 miENE (60°)24.2 mph29.9 mphScattered Clouds
11:55 PM78.1 °F72.3 °F82 %29.87 in10.0 miENE (70°)19.6 mph32.2 mphPartly Cloudy
Hourly data recorded from PGUA, located miles away from Merizo, Guam







STORIES FROM OUR PARTNERS